Weather History for Princeton, MN

Change the Weather History Date:

Monday, October 14, 2013

  Actual Average Record
Temperature  
Mean Temperature 43 °F -  
Max Temperature 51 °F 56 °F 69 °F (2005)
Min Temperature 35 °F 34 °F 28 °F (2006)
Degree Days  
Heating Degree Days 22    
Moisture  
Dew Point 40 °F    
Average Humidity 81    
Maximum Humidity 100    
Minimum Humidity 62    
Precipitation  
Precipitation 0.33 in - - ()
Sea Level Pressure  
Sea Level Pressure 30.25 in    
Wind  
Wind Speed 3 mph (ENE)    
Max Wind Speed 15 mph    
Max Gust Speed 24 mph    
Visibility 10 miles    
Events Rain    
Averages and records for this station are not official NWS values.
T = Trace of Precipitation, MM = Missing Value Source: NWS Daily Summary

Daily Weather History Graph

Daily Weather History Graph

Search for Another Location

Airport:

Trip Planner

Search our weather history database for the weather conditions in past years. The results will help you decide how hot, cold, wet, or windy it might be!

Date:

Astronomy

Oct. 14, 2013 Rise Set
Actual Time 7:29 AM CDT 6:30 PM CDT
Civil Twilight 6:59 AM CDT 6:59 PM CDT
Nautical Twilight 6:25 AM CDT 7:34 PM CDT
Astronomical Twilight 5:51 AM CDT 8:08 PM CDT
Moon 4:11 PM CDT (10/14) 2:34 AM CDT (10/14)
Length of Visible Light 12h 00m
Length of Day
11h 00m
Waxing Gibbous, 79% of the Moon is Illuminated
Oct 14
Waxing Gibbous
Oct 18
Full
Oct 26
Last Quarter
Nov 3
New
Nov 9
First Quarter

Hourly Weather History & Observations

Time (CDT) Temp. Windchill Dew Point Humidity Pressure Visibility Wind Dir Wind Speed Gust Speed Precip Events Conditions
12:13 AM 37.4 °F - 35.6 °F 93% 30.40 in 10.0 mi Calm Calm - N/A   Clear
12:33 AM 35.6 °F - 33.8 °F 93% 30.40 in 10.0 mi Calm Calm - N/A   Clear
12:53 AM 37.4 °F - 35.6 °F 93% 30.40 in 10.0 mi Calm Calm - N/A   Clear
1:13 AM 37.4 °F - 35.6 °F 93% 30.41 in 10.0 mi Calm Calm - N/A   Clear
1:33 AM 37.4 °F - 35.6 °F 93% 30.41 in 10.0 mi Calm Calm - N/A   Clear
1:53 AM 37.4 °F - 35.6 °F 93% 30.41 in 10.0 mi Calm Calm - N/A   Clear
2:13 AM 37.4 °F - 35.6 °F 93% 30.40 in 10.0 mi Calm Calm - N/A   Scattered Clouds
2:33 AM 37.4 °F - 35.6 °F 93% 30.41 in 10.0 mi Calm Calm - N/A   Scattered Clouds
2:53 AM 37.4 °F - 35.6 °F 93% 30.40 in 10.0 mi Calm Calm - N/A   Clear
3:13 AM 37.4 °F - 37.4 °F 100% 30.40 in 10.0 mi Calm Calm - N/A   Clear
3:33 AM 37.4 °F - 37.4 °F 100% 30.39 in 7.0 mi Calm Calm - N/A   Clear
3:54 AM 37.4 °F - 37.4 °F 100% 30.39 in 10.0 mi Calm Calm - N/A   Clear
4:13 AM 39.2 °F 37.0 °F 37.4 °F 93% 30.38 in 10.0 mi East 3.5 mph - N/A   Clear
4:33 AM 39.2 °F - 37.4 °F 93% 30.38 in 10.0 mi Calm Calm - N/A   Clear
4:54 AM 39.2 °F - 37.4 °F 93% 30.39 in 10.0 mi Calm Calm - N/A   Clear
5:13 AM 42.8 °F 41.1 °F 37.4 °F 81% 30.37 in 10.0 mi ENE 3.5 mph - N/A   Clear
5:33 AM 42.8 °F - 37.4 °F 81% 30.37 in 10.0 mi Calm Calm - N/A   Clear
5:52 AM 42.8 °F - 37.4 °F 81% 30.37 in 10.0 mi Calm Calm - N/A   Clear
6:13 AM 42.8 °F 40.1 °F 37.4 °F 81% 30.36 in 10.0 mi East 4.6 mph - N/A   Clear
6:33 AM 42.8 °F 39.3 °F 37.4 °F 81% 30.35 in 10.0 mi ENE 5.8 mph - N/A   Clear
6:53 AM 42.8 °F 41.1 °F 37.4 °F 81% 30.36 in 10.0 mi East 3.5 mph - N/A   Clear
7:13 AM 42.8 °F 41.1 °F 37.4 °F 81% 30.35 in 10.0 mi East 3.5 mph - N/A   Clear
7:33 AM 42.8 °F 40.1 °F 37.4 °F 81% 30.35 in 10.0 mi East 4.6 mph - N/A   Clear
7:53 AM 42.8 °F - 37.4 °F 81% 30.36 in 10.0 mi Calm Calm - N/A   Clear
8:14 AM 42.8 °F - 37.4 °F 81% 30.36 in 10.0 mi Calm Calm - N/A   Clear
8:33 AM 42.8 °F 41.1 °F 37.4 °F 81% 30.35 in 10.0 mi East 3.5 mph - N/A   Clear
8:53 AM 44.6 °F 41.4 °F 37.4 °F 76% 30.34 in 10.0 mi East 5.8 mph - N/A   Clear
9:14 AM 44.6 °F 43.1 °F 37.4 °F 76% 30.34 in 10.0 mi East 3.5 mph - N/A   Clear
9:33 AM 44.6 °F - 37.4 °F 76% 30.36 in 10.0 mi Calm Calm - N/A   Scattered Clouds
9:53 AM 46.4 °F - 37.4 °F 71% 30.37 in 10.0 mi Calm Calm - N/A   Mostly Cloudy
10:33 AM 44.6 °F - 39.2 °F 81% 30.37 in 10.0 mi Calm Calm - 0.01 in Rain Light Rain
10:53 AM 44.6 °F - 39.2 °F 81% 30.36 in 10.0 mi Calm Calm - 0.02 in Rain Light Rain
11:14 AM 44.6 °F 43.1 °F 39.2 °F 81% 30.35 in 10.0 mi ENE 3.5 mph - N/A Rain Rain
11:33 AM 44.6 °F 41.4 °F 39.2 °F 81% 30.32 in 10.0 mi ENE 5.8 mph - N/A   Scattered Clouds
11:53 AM 44.6 °F 40.7 °F 39.2 °F 81% 30.30 in 10.0 mi East 6.9 mph - N/A   Clear
12:14 PM 46.4 °F 44.3 °F 41.0 °F 81% 30.28 in 10.0 mi East 4.6 mph - N/A   Clear
12:33 PM 46.4 °F 43.5 °F 41.0 °F 81% 30.28 in 10.0 mi East 5.8 mph - N/A   Clear
12:53 PM 46.4 °F 44.3 °F 42.8 °F 87% 30.27 in 10.0 mi East 4.6 mph - N/A   Clear
1:14 PM 48.2 °F - 41.0 °F 76% 30.26 in 10.0 mi East 4.6 mph - N/A   Clear
1:33 PM 50.0 °F - 42.8 °F 76% 30.24 in 10.0 mi ENE 5.8 mph - N/A   Clear
1:54 PM 51.8 °F - 42.8 °F 71% 30.22 in 10.0 mi East 6.9 mph - N/A   Clear
2:13 PM 51.8 °F - 42.8 °F 71% 30.20 in 10.0 mi ENE 6.9 mph - N/A   Clear
2:33 PM 51.8 °F - 41.0 °F 67% 30.20 in 10.0 mi East 6.9 mph - N/A   Scattered Clouds
2:54 PM 51.8 °F - 41.0 °F 67% 30.18 in 10.0 mi ENE 6.9 mph - N/A   Clear
3:13 PM 51.8 °F - 41.0 °F 67% 30.18 in 10.0 mi ENE 4.6 mph - N/A   Scattered Clouds
3:33 PM 51.8 °F - 41.0 °F 67% 30.16 in 10.0 mi NNE 9.2 mph - N/A   Scattered Clouds
3:54 PM 51.8 °F - 42.8 °F 71% 30.16 in 10.0 mi NE 9.2 mph - N/A   Scattered Clouds
4:13 PM 51.8 °F - 42.8 °F 71% 30.16 in 10.0 mi NE 5.8 mph - N/A   Clear
4:33 PM 51.8 °F - 42.8 °F 71% 30.16 in 10.0 mi ENE 4.6 mph - N/A   Scattered Clouds
4:54 PM 51.8 °F - 42.8 °F 71% 30.11 in 10.0 mi NNE 11.5 mph - N/A   Light Drizzle
5:13 PM 51.8 °F - 41.0 °F 67% 30.11 in 10.0 mi ENE 9.2 mph - N/A   Mostly Cloudy
5:33 PM 51.8 °F - 41.0 °F 67% 30.13 in 10.0 mi ENE 6.9 mph - N/A   Overcast
5:54 PM 51.8 °F - 41.0 °F 67% 30.13 in 10.0 mi NE 4.6 mph - N/A   Mostly Cloudy
6:13 PM 51.8 °F - 41.0 °F 67% 30.14 in 10.0 mi Calm Calm - N/A   Mostly Cloudy
6:33 PM 51.8 °F - 39.2 °F 62% 30.12 in 10.0 mi ENE 6.9 mph - N/A   Mostly Cloudy
6:53 PM 51.8 °F - 39.2 °F 62% 30.11 in 10.0 mi East 8.1 mph - N/A   Mostly Cloudy
7:13 PM 51.8 °F - 39.2 °F 62% 30.10 in 10.0 mi ENE 8.1 mph - N/A   Overcast
7:33 PM 51.8 °F - 39.2 °F 62% 30.10 in 10.0 mi East 6.9 mph - N/A Rain Light Rain
7:53 PM 51.8 °F - 39.2 °F 62% 30.08 in 10.0 mi NE 10.4 mph - N/A Rain Light Rain
8:13 PM 50.0 °F - 41.0 °F 71% 30.09 in 10.0 mi East 4.6 mph - N/A   Light Drizzle
8:33 PM 48.2 °F - 42.8 °F 82% 30.05 in 10.0 mi NE 12.7 mph - 0.02 in Rain Light Rain
8:53 PM 48.2 °F - 42.8 °F 82% 30.04 in 10.0 mi NE 9.2 mph - 0.02 in Rain Light Rain
9:13 PM 48.2 °F - 42.8 °F 82% 30.05 in 10.0 mi NNE 8.1 mph - 0.01 in Rain Light Rain
9:33 PM 48.2 °F - 42.8 °F 82% 30.05 in 10.0 mi NNE 4.6 mph - 0.03 in Rain Rain
9:53 PM 48.2 °F - 44.6 °F 87% 30.08 in 10.0 mi Calm Calm - 0.05 in Rain Light Rain
10:13 PM 46.4 °F 42.4 °F 44.6 °F 93% 30.04 in 10.0 mi NE 8.1 mph - 0.01 in Rain Rain
10:33 PM 46.4 °F 42.4 °F 44.6 °F 93% 30.04 in 10.0 mi NE 8.1 mph - 0.05 in Rain Rain
10:53 PM 46.4 °F 41.1 °F 44.6 °F 93% 30.02 in 10.0 mi ENE 11.5 mph 17.3 mph 0.11 in Rain Heavy Rain
11:13 PM 46.4 °F 41.9 °F 44.6 °F 93% 30.01 in 10.0 mi ENE 9.2 mph 16.1 mph 0.03 in Rain Rain
11:33 PM 48.2 °F - 44.6 °F 87% 30.00 in 10.0 mi ENE 15.0 mph 18.4 mph 0.07 in Rain Rain
11:53 PM 48.2 °F - 44.6 °F 87% 29.97 in 10.0 mi ENE 15.0 mph 24.2 mph 0.13 in Rain Rain